Location: downtown San Diego
(32.7310°N, 117.1990°W)
Time: 06:19:59
(UTC-07:00)

Iridium 4 Rocket - Pass Details

Date: 19 May 2017
Orbit: 584 x 906 km, 86.9° (Epoch: 28 May)

Event Time Altitude Azimuth Distance (km) Brightness Sun altitude
Rises 20:42:14 0° 3° (N) 3,060 7.1 -11.6°
Reaches altitude 10° 20:44:27 10° 6° (N) 2,187 6.2 -12.0°
Maximum altitude 20:49:17 64° 88° (E) 839 3.5 -12.8°
Drops below altitude 10° 20:54:35 10° 170° (S) 2,385 5.6 -13.7°
Enters shadow 20:54:55 - 170° (S) 2,515 5.8 -13.8°
